Pine Ridge, SD

10:02 PM MDT on April 23, 2018 (GMT -0600)
Pine Ridge

Weather History for KIEN - August, 2013

Change the Weather History Date:

Friday, August 23, 2013

  Actual Average Record
Temperature  
Mean Temperature 78 °F 70 °F  
Max Temperature 91 °F 87 °F 104 °F (2006)
Min Temperature 65 °F 54 °F 34 °F (2015)
Degree Days  
Heating Degree Days 0 1  
Month to date heating degree days 0 11  
Since 1 June heating degree days 80 110  
Since 1 July heating degree days 2 23  
Cooling Degree Days 13 6  
Month to date cooling degree days 162 197  
Year to date cooling degree days 546 605  
Since 1 June cooling degree days 529 588  
Growing Degree Days 28 (Base 50)    
Moisture  
Dew Point 63 °F    
Average Humidity 65    
Maximum Humidity 93    
Minimum Humidity 36    
Precipitation  
Precipitation 0.00 in 0.05 in 0.81 in (2014)
Month to date precipitation 2.30 1.47  
Year to date precipitation 13.99 13.41  
Sea Level Pressure  
Sea Level Pressure 29.92 in    
Wind  
Wind Speed 9 mph (South)    
Max Wind Speed 21 mph    
Max Gust Speed 29 mph    
Visibility 10 miles    
Events      
T = Trace of Precipitation, MM = Missing Value Source: NWS Daily Summary

Daily Weather History Graph

Daily Weather History Graph

Search for Another Location

Airport or City:

Astronomy

Aug. 23, 2013 Rise Set
Actual Time 6:04 AM MDT 7:39 PM MDT
Civil Twilight 5:35 AM MDT 8:09 PM MDT
Nautical Twilight 4:58 AM MDT 8:45 PM MDT
Astronomical Twilight 4:20 AM MDT 9:23 PM MDT
Moon 8:52 PM MDT (8/23) 9:08 AM MDT (8/23)
Length of Visible Light 14h 34m
Length of Day
13h 34m
Waning Gibbous, 91% of the Moon is Illuminated
Aug 23
Waning Gibbous
Aug 28
Last Quarter
Sep 5
New
Sep 12
First Quarter
Sep 19
Full

Hourly Weather History & Observations

Time (MDT) Temp. Heat Index Dew Point Humidity Pressure Visibility Wind Dir Wind Speed Gust Speed Precip Events Conditions
12:52 AM 66.0 °F - 63.0 °F 90% 30.02 in 10.0 mi WSW 3.5 mph - N/A   Scattered Clouds
1:07 AM 66.2 °F - 64.4 °F 94% 30.10 in 10.0 mi South 5.8 mph - N/A   Mostly Cloudy
1:17 AM 66.2 °F - 64.4 °F 94% 30.11 in 10.0 mi Calm Calm - N/A   Scattered Clouds
1:27 AM 66.2 °F - 64.4 °F 94% 30.10 in 10.0 mi Calm Calm - N/A   Mostly Cloudy
1:52 AM 66.9 °F - 64.0 °F 90% 30.00 in 10.0 mi South 6.9 mph - N/A   Mostly Cloudy
2:19 AM 66.2 °F - 64.4 °F 94% 30.08 in 9.0 mi South 9.2 mph - N/A   Scattered Clouds
2:52 AM 66.9 °F - 64.0 °F 90% 29.98 in 9.0 mi SSE 6.9 mph - N/A   Clear
3:14 AM 66.2 °F - 64.4 °F 94% 30.06 in 9.0 mi Calm Calm - N/A   Mostly Cloudy
3:52 AM 66.9 °F - 64.0 °F 90% 29.96 in 9.0 mi Calm Calm - N/A   Mostly Cloudy
4:49 AM 66.2 °F - 64.4 °F 94% 30.05 in 9.0 mi South 4.6 mph - N/A   Scattered Clouds
4:52 AM 66.0 °F - 64.0 °F 93% 29.96 in 9.0 mi South 5.8 mph - N/A   Partly Cloudy
5:13 AM 66.2 °F - 64.4 °F 94% 30.05 in 8.0 mi South 6.9 mph - N/A   Mostly Cloudy
5:52 AM 66.9 °F - 64.0 °F 90% 29.95 in 9.0 mi Variable 3.5 mph - N/A   Overcast
6:21 AM 66.2 °F - 62.6 °F 88% 30.02 in 7.0 mi Calm Calm - N/A   Scattered Clouds
6:52 AM 66.0 °F - 63.0 °F 90% 29.94 in 7.0 mi SE 4.6 mph - N/A   Partly Cloudy
7:52 AM 70.0 °F - 63.0 °F 78% 29.93 in 10.0 mi Calm Calm - N/A   Clear
8:52 AM 73.9 °F - 64.0 °F 71% 29.92 in 10.0 mi Variable 6.9 mph - N/A   Clear
9:52 AM 75.0 °F - 64.0 °F 69% 29.92 in 10.0 mi South 4.6 mph - N/A   Clear
10:52 AM 81.0 °F 82.7 °F 64.9 °F 58% 29.89 in 10.0 mi South 10.4 mph - N/A   Clear
11:52 AM 84.0 °F 85.4 °F 64.0 °F 51% 29.88 in 10.0 mi South 13.8 mph 23.0 mph N/A   Clear
12:52 PM 84.0 °F 84.4 °F 61.0 °F 46% 29.87 in 10.0 mi South 15.0 mph 24.2 mph N/A   Clear
1:52 PM 84.9 °F 85.0 °F 61.0 °F 44% 29.85 in 10.0 mi South 10.4 mph - N/A   Clear
2:52 PM 87.1 °F 86.5 °F 59.0 °F 39% 29.82 in 10.0 mi South 17.3 mph 24.2 mph N/A   Clear
3:52 PM 90.0 °F 89.1 °F 59.0 °F 35% 29.79 in 10.0 mi South 12.7 mph 20.7 mph N/A   Clear
4:52 PM 91.0 °F 90.5 °F 60.1 °F 35% 29.77 in 10.0 mi SSE 10.4 mph 19.6 mph N/A   Clear
5:52 PM 90.0 °F 89.7 °F 60.1 °F 37% 29.75 in 10.0 mi South 10.4 mph 18.4 mph N/A   Clear
6:52 PM 86.0 °F 86.3 °F 62.1 °F 44% 29.75 in 10.0 mi SE 9.2 mph - N/A   Clear
7:52 PM 84.0 °F 84.4 °F 61.0 °F 46% 29.75 in 10.0 mi SSE 12.7 mph - N/A   Clear
8:52 PM 82.0 °F 82.1 °F 59.0 °F 45% 29.77 in 10.0 mi SSE 12.7 mph 20.7 mph N/A   Clear
9:52 PM 80.1 °F 80.7 °F 59.0 °F 48% 29.77 in 10.0 mi South 12.7 mph - N/A   Clear
10:52 PM 78.1 °F - 60.1 °F 54% 29.76 in 10.0 mi South 13.8 mph 19.6 mph N/A   Clear
11:52 PM 77.0 °F - 61.0 °F 58% 29.75 in 10.0 mi South 13.8 mph - N/A   Clear